Year,Month,Day,Hour,Minute,Value (Times are PST for insolation in W/m^2)
2022,06,19,00,00,0.00
2022,06,19,00,01,0.00
2022,06,19,00,02,0.00
2022,06,19,00,03,0.00
2022,06,19,00,04,0.00
2022,06,19,00,05,0.00
2022,06,19,00,06,0.00
2022,06,19,00,07,0.00
2022,06,19,00,08,0.00
2022,06,19,00,09,0.00
2022,06,19,00,10,0.00
2022,06,19,00,11,0.00
2022,06,19,00,12,0.00
2022,06,19,00,13,0.00
2022,06,19,00,14,0.00
2022,06,19,00,15,0.00
2022,06,19,00,16,0.00
2022,06,19,00,17,0.00
2022,06,19,00,18,0.00
2022,06,19,00,19,0.00
2022,06,19,00,20,0.00
2022,06,19,00,21,0.00
2022,06,19,00,22,0.00
2022,06,19,00,23,0.00
2022,06,19,00,24,0.00
2022,06,19,00,25,0.00
2022,06,19,00,26,0.00
2022,06,19,00,27,0.00
2022,06,19,00,28,0.00
2022,06,19,00,29,0.00
2022,06,19,00,30,0.00
2022,06,19,00,31,0.00
2022,06,19,00,32,0.00
2022,06,19,00,33,0.00
2022,06,19,00,34,0.00
2022,06,19,00,35,0.00
2022,06,19,00,36,0.00
2022,06,19,00,37,0.00
2022,06,19,00,38,0.00
2022,06,19,00,39,0.00
2022,06,19,00,40,0.00
2022,06,19,00,41,0.00
2022,06,19,00,42,0.00
2022,06,19,00,43,0.00
2022,06,19,00,44,0.00
2022,06,19,00,45,0.00
2022,06,19,00,46,0.00
2022,06,19,00,47,0.00
2022,06,19,00,48,0.00
2022,06,19,00,49,0.00
2022,06,19,00,50,0.00
2022,06,19,00,51,0.00
2022,06,19,00,52,0.00
2022,06,19,00,53,0.00
2022,06,19,00,54,0.00
2022,06,19,00,55,0.00
2022,06,19,00,56,0.00
2022,06,19,00,57,0.00
2022,06,19,00,58,0.00
2022,06,19,00,59,0.00
2022,06,19,01,00,0.00
2022,06,19,01,01,0.00
2022,06,19,01,02,0.00
2022,06,19,01,03,0.00
2022,06,19,01,04,0.00
2022,06,19,01,05,0.00
2022,06,19,01,06,0.00
2022,06,19,01,07,0.00
2022,06,19,01,08,0.00
2022,06,19,01,09,0.00
2022,06,19,01,10,0.00
2022,06,19,01,11,0.00
2022,06,19,01,12,0.00
2022,06,19,01,13,0.00
2022,06,19,01,14,0.00
2022,06,19,01,15,0.00
2022,06,19,01,16,0.00
2022,06,19,01,17,0.00
2022,06,19,01,18,0.00
2022,06,19,01,19,0.00
2022,06,19,01,20,0.00
2022,06,19,01,21,0.00
2022,06,19,01,22,0.00
2022,06,19,01,23,0.00
2022,06,19,01,24,0.00
2022,06,19,01,25,0.00
2022,06,19,01,26,0.00
2022,06,19,01,27,0.00
2022,06,19,01,28,0.00
2022,06,19,01,29,0.00
2022,06,19,01,30,0.00
2022,06,19,01,31,0.00
2022,06,19,01,32,0.00
2022,06,19,01,33,0.00
2022,06,19,01,34,0.00
2022,06,19,01,35,0.00
2022,06,19,01,36,0.00
2022,06,19,01,37,0.00
2022,06,19,01,38,0.00
2022,06,19,01,39,0.00
2022,06,19,01,40,0.00
2022,06,19,01,41,0.00
2022,06,19,01,42,0.00
2022,06,19,01,43,0.00
2022,06,19,01,44,0.00
2022,06,19,01,45,0.00
2022,06,19,01,46,0.00
2022,06,19,01,47,0.00
2022,06,19,01,48,0.00
2022,06,19,01,49,0.00
2022,06,19,01,50,0.00
2022,06,19,01,51,0.00
2022,06,19,01,52,0.00
2022,06,19,01,53,0.00
2022,06,19,01,54,0.00
2022,06,19,01,55,0.00
2022,06,19,01,56,0.00
2022,06,19,01,57,0.00
2022,06,19,01,58,0.00
2022,06,19,01,59,0.00
2022,06,19,02,00,0.00
2022,06,19,02,01,0.00
2022,06,19,02,02,0.00
2022,06,19,02,03,0.00
2022,06,19,02,04,0.00
2022,06,19,02,05,0.00
2022,06,19,02,06,0.00
2022,06,19,02,07,0.00
2022,06,19,02,08,0.00
2022,06,19,02,09,0.00
2022,06,19,02,10,0.00
2022,06,19,02,11,0.00
2022,06,19,02,12,0.00
2022,06,19,02,13,0.00
2022,06,19,02,14,0.00
2022,06,19,02,15,0.00
2022,06,19,02,16,0.00
2022,06,19,02,17,0.00
2022,06,19,02,18,0.00
2022,06,19,02,19,0.00
2022,06,19,02,20,0.00
2022,06,19,02,21,0.00
2022,06,19,02,22,0.00
2022,06,19,02,23,0.00
2022,06,19,02,24,0.00
2022,06,19,02,25,0.00
2022,06,19,02,26,0.00
2022,06,19,02,27,0.00
2022,06,19,02,28,0.00
2022,06,19,02,29,0.00
2022,06,19,02,30,0.00
2022,06,19,02,31,0.00
2022,06,19,02,32,0.00
2022,06,19,02,33,0.00
2022,06,19,02,34,0.00
2022,06,19,02,35,0.00
2022,06,19,02,36,0.00
2022,06,19,02,37,0.00
2022,06,19,02,38,0.00
2022,06,19,02,39,0.00
2022,06,19,02,40,0.00
2022,06,19,02,41,0.00
2022,06,19,02,42,0.00
2022,06,19,02,43,0.00
2022,06,19,02,44,0.00
2022,06,19,02,45,0.00
2022,06,19,02,46,0.00
2022,06,19,02,47,0.00
2022,06,19,02,48,0.00
2022,06,19,02,49,0.00
2022,06,19,02,50,0.00
2022,06,19,02,51,0.00
2022,06,19,02,52,0.00
2022,06,19,02,53,0.00
2022,06,19,02,54,0.00
2022,06,19,02,55,0.00
2022,06,19,02,56,0.00
2022,06,19,02,57,0.00
2022,06,19,02,58,0.00
2022,06,19,02,59,0.00
2022,06,19,03,00,0.00
2022,06,19,03,01,0.00
2022,06,19,03,02,0.00
2022,06,19,03,03,0.00
2022,06,19,03,04,0.00
2022,06,19,03,05,0.00
2022,06,19,03,06,0.00
2022,06,19,03,07,0.00
2022,06,19,03,08,0.00
2022,06,19,03,09,0.00
2022,06,19,03,10,0.00
2022,06,19,03,11,0.00
2022,06,19,03,12,0.00
2022,06,19,03,13,0.00
2022,06,19,03,14,0.00
2022,06,19,03,15,0.00
2022,06,19,03,16,0.00
2022,06,19,03,17,0.00
2022,06,19,03,18,0.00
2022,06,19,03,19,0.00
2022,06,19,03,20,0.00
2022,06,19,03,21,0.00
2022,06,19,03,22,0.00
2022,06,19,03,23,0.00
2022,06,19,03,24,0.00
2022,06,19,03,25,0.00
2022,06,19,03,26,0.00
2022,06,19,03,27,0.00
2022,06,19,03,28,0.00
2022,06,19,03,29,0.00
2022,06,19,03,30,0.00
2022,06,19,03,31,0.00
2022,06,19,03,32,0.00
2022,06,19,03,33,0.00
2022,06,19,03,34,0.00
2022,06,19,03,35,0.00
2022,06,19,03,36,0.00
2022,06,19,03,37,0.00
2022,06,19,03,38,0.00
2022,06,19,03,39,0.00
2022,06,19,03,40,0.00
2022,06,19,03,41,0.00
2022,06,19,03,42,0.00
2022,06,19,03,43,0.00
2022,06,19,03,44,0.00
2022,06,19,03,45,0.00
2022,06,19,03,46,0.00
2022,06,19,03,47,0.00
2022,06,19,03,48,0.00
2022,06,19,03,49,0.00
2022,06,19,03,50,0.00
2022,06,19,03,51,0.00
2022,06,19,03,52,0.00
2022,06,19,03,53,0.00
2022,06,19,03,54,0.00
2022,06,19,03,55,0.00
2022,06,19,03,56,0.00
2022,06,19,03,57,0.00
2022,06,19,03,58,0.00
2022,06,19,03,59,0.00
2022,06,19,04,00,0.00
2022,06,19,04,01,0.00
2022,06,19,04,02,0.00
2022,06,19,04,03,0.00
2022,06,19,04,04,0.00
2022,06,19,04,05,0.00
2022,06,19,04,06,0.00
2022,06,19,04,07,0.00
2022,06,19,04,08,0.00
2022,06,19,04,09,0.00
2022,06,19,04,10,0.00
2022,06,19,04,11,0.00
2022,06,19,04,12,0.00
2022,06,19,04,13,0.00
2022,06,19,04,14,0.00
2022,06,19,04,15,0.00
2022,06,19,04,16,0.00
2022,06,19,04,17,0.00
2022,06,19,04,18,0.00
2022,06,19,04,19,0.00
2022,06,19,04,20,0.00
2022,06,19,04,21,0.00
2022,06,19,04,22,0.00
2022,06,19,04,23,0.00
2022,06,19,04,24,0.00
2022,06,19,04,25,0.00
2022,06,19,04,26,0.00
2022,06,19,04,27,0.00
2022,06,19,04,28,0.00
2022,06,19,04,29,0.00
2022,06,19,04,30,0.00
2022,06,19,04,31,0.00
2022,06,19,04,32,0.00
2022,06,19,04,33,0.00
2022,06,19,04,34,0.00
2022,06,19,04,35,0.00
2022,06,19,04,36,0.00
2022,06,19,04,37,0.00
2022,06,19,04,38,0.00
2022,06,19,04,39,0.00
2022,06,19,04,40,0.00
2022,06,19,04,41,0.00
2022,06,19,04,42,0.00
2022,06,19,04,43,0.00
2022,06,19,04,44,0.00
2022,06,19,04,45,0.00
2022,06,19,04,46,0.00
2022,06,19,04,47,0.00
2022,06,19,04,48,0.00
2022,06,19,04,49,0.00
2022,06,19,04,50,0.00
2022,06,19,04,51,0.00
2022,06,19,04,52,0.00
2022,06,19,04,53,0.00
2022,06,19,04,54,0.00
2022,06,19,04,55,0.00
2022,06,19,04,56,0.00
2022,06,19,04,57,0.00
2022,06,19,04,58,0.00
2022,06,19,04,59,0.00
2022,06,19,05,00,0.00
2022,06,19,05,01,0.00
2022,06,19,05,02,0.00
2022,06,19,05,03,0.00
2022,06,19,05,04,0.00
2022,06,19,05,05,0.00
2022,06,19,05,06,0.00
2022,06,19,05,07,0.00
2022,06,19,05,08,0.00
2022,06,19,05,09,0.00
2022,06,19,05,10,0.00
2022,06,19,05,11,0.00
2022,06,19,05,12,0.00
2022,06,19,05,13,0.00
2022,06,19,05,14,0.00
2022,06,19,05,15,0.00
2022,06,19,05,16,0.00
2022,06,19,05,17,0.00
2022,06,19,05,18,0.00
2022,06,19,05,19,0.00
2022,06,19,05,20,0.00
2022,06,19,05,21,0.00
2022,06,19,05,22,0.00
2022,06,19,05,23,1.80
2022,06,19,05,24,5.00
2022,06,19,05,25,5.00
2022,06,19,05,26,5.00
2022,06,19,05,27,5.00
2022,06,19,05,28,5.00
2022,06,19,05,29,6.30
2022,06,19,05,30,7.00
2022,06,19,05,31,7.00
2022,06,19,05,32,7.00
2022,06,19,05,33,7.00
2022,06,19,05,34,8.70
2022,06,19,05,35,9.00
2022,06,19,05,36,9.00
2022,06,19,05,37,9.00
2022,06,19,05,38,9.10
2022,06,19,05,39,11.00
2022,06,19,05,40,11.00
2022,06,19,05,41,11.10
2022,06,19,05,42,12.00
2022,06,19,05,43,12.00
2022,06,19,05,44,12.00
2022,06,19,05,45,12.70
2022,06,19,05,46,14.00
2022,06,19,05,47,14.00
2022,06,19,05,48,14.90
2022,06,19,05,49,16.00
2022,06,19,05,50,17.10
2022,06,19,05,51,18.00
2022,06,19,05,52,18.00
2022,06,19,05,53,18.60
2022,06,19,05,54,19.00
2022,06,19,05,55,20.50
2022,06,19,05,56,21.00
2022,06,19,05,57,21.00
2022,06,19,05,58,21.00
2022,06,19,05,59,22.80
2022,06,19,06,00,23.00
2022,06,19,06,01,23.10
2022,06,19,06,02,25.00
2022,06,19,06,03,25.00
2022,06,19,06,04,25.00
2022,06,19,06,05,25.00
2022,06,19,06,06,25.00
2022,06,19,06,07,25.30
2022,06,19,06,08,26.00
2022,06,19,06,09,26.00
2022,06,19,06,10,26.00
2022,06,19,06,11,26.90
2022,06,19,06,12,28.00
2022,06,19,06,13,29.10
2022,06,19,06,14,30.00
2022,06,19,06,15,31.20
2022,06,19,06,16,32.70
2022,06,19,06,17,34.50
2022,06,19,06,18,36.60
2022,06,19,06,19,38.60
2022,06,19,06,20,41.40
2022,06,19,06,21,45.60
2022,06,19,06,22,48.70
2022,06,19,06,23,53.80
2022,06,19,06,24,58.20
2022,06,19,06,25,62.30
2022,06,19,06,26,65.30
2022,06,19,06,27,67.30
2022,06,19,06,28,69.20
2022,06,19,06,29,70.00
2022,06,19,06,30,70.00
2022,06,19,06,31,70.00
2022,06,19,06,32,70.00
2022,06,19,06,33,70.90
2022,06,19,06,34,72.00
2022,06,19,06,35,73.00
2022,06,19,06,36,75.10
2022,06,19,06,37,76.60
2022,06,19,06,38,79.70
2022,06,19,06,39,82.30
2022,06,19,06,40,83.70
2022,06,19,06,41,87.00
2022,06,19,06,42,89.60
2022,06,19,06,43,92.40
2022,06,19,06,44,94.70
2022,06,19,06,45,96.80
2022,06,19,06,46,98.00
2022,06,19,06,47,100.10
2022,06,19,06,48,102.20
2022,06,19,06,49,104.10
2022,06,19,06,50,105.00
2022,06,19,06,51,105.40
2022,06,19,06,52,107.00
2022,06,19,06,53,106.40
2022,06,19,06,54,105.00
2022,06,19,06,55,103.90
2022,06,19,06,56,102.00
2022,06,19,06,57,102.00
2022,06,19,06,58,102.90
2022,06,19,06,59,104.00
2022,06,19,07,00,105.90
2022,06,19,07,01,108.40
2022,06,19,07,02,110.30
2022,06,19,07,03,111.00
2022,06,19,07,04,112.50
2022,06,19,07,05,113.00
2022,06,19,07,06,111.40
2022,06,19,07,07,109.30
2022,06,19,07,08,105.40
2022,06,19,07,09,104.00
2022,06,19,07,10,99.90
2022,06,19,07,11,96.80
2022,06,19,07,12,95.20
2022,06,19,07,13,97.50
2022,06,19,07,14,99.50
2022,06,19,07,15,99.00
2022,06,19,07,16,102.60
2022,06,19,07,17,108.20
2022,06,19,07,18,116.80
2022,06,19,07,19,115.10
2022,06,19,07,20,109.20
2022,06,19,07,21,107.00
2022,06,19,07,22,107.00
2022,06,19,07,23,107.00
2022,06,19,07,24,107.00
2022,06,19,07,25,108.40
2022,06,19,07,26,110.40
2022,06,19,07,27,113.20
2022,06,19,07,28,117.10
2022,06,19,07,29,124.00
2022,06,19,07,30,129.30
2022,06,19,07,31,134.50
2022,06,19,07,32,136.90
2022,06,19,07,33,136.90
2022,06,19,07,34,134.00
2022,06,19,07,35,135.00
2022,06,19,07,36,147.70
2022,06,19,07,37,174.30
2022,06,19,07,38,175.00
2022,06,19,07,39,141.80
2022,06,19,07,40,143.30
2022,06,19,07,41,142.80
2022,06,19,07,42,146.00
2022,06,19,07,43,152.00
2022,06,19,07,44,156.60
2022,06,19,07,45,159.10
2022,06,19,07,46,160.00
2022,06,19,07,47,158.70
2022,06,19,07,48,158.00
2022,06,19,07,49,159.50
2022,06,19,07,50,163.80
2022,06,19,07,51,172.10
2022,06,19,07,52,181.40
2022,06,19,07,53,190.80
2022,06,19,07,54,199.30
2022,06,19,07,55,205.70
2022,06,19,07,56,207.00
2022,06,19,07,57,205.30
2022,06,19,07,58,198.10
2022,06,19,07,59,191.70
2022,06,19,08,00,185.30
2022,06,19,08,01,182.40
2022,06,19,08,02,180.00
2022,06,19,08,03,178.00
2022,06,19,08,04,179.10
2022,06,19,08,05,181.80
2022,06,19,08,06,184.40
2022,06,19,08,07,189.00
2022,06,19,08,08,196.00
2022,06,19,08,09,201.90
2022,06,19,08,10,207.00
2022,06,19,08,11,210.30
2022,06,19,08,12,209.50
2022,06,19,08,13,207.50
2022,06,19,08,14,204.60
2022,06,19,08,15,202.30
2022,06,19,08,16,199.40
2022,06,19,08,17,197.20
2022,06,19,08,18,197.00
2022,06,19,08,19,194.90
2022,06,19,08,20,193.00
2022,06,19,08,21,193.40
2022,06,19,08,22,203.70
2022,06,19,08,23,233.20
2022,06,19,08,24,237.00
2022,06,19,08,25,237.60
2022,06,19,08,26,238.40
2022,06,19,08,27,235.90
2022,06,19,08,28,234.00
2022,06,19,08,29,241.60
2022,06,19,08,30,287.00
2022,06,19,08,31,336.10
2022,06,19,08,32,306.00
2022,06,19,08,33,275.10
2022,06,19,08,34,303.30
2022,06,19,08,35,265.90
2022,06,19,08,36,226.50
2022,06,19,08,37,210.20
2022,06,19,08,38,197.70
2022,06,19,08,39,186.00
2022,06,19,08,40,178.40
2022,06,19,08,41,174.20
2022,06,19,08,42,172.00
2022,06,19,08,43,171.80
2022,06,19,08,44,177.80
2022,06,19,08,45,171.10
2022,06,19,08,46,174.20
2022,06,19,08,47,197.00
2022,06,19,08,48,253.30
2022,06,19,08,49,291.70
2022,06,19,08,50,297.40
2022,06,19,08,51,321.10
2022,06,19,08,52,302.70
2022,06,19,08,53,248.90
2022,06,19,08,54,198.30
2022,06,19,08,55,201.80
2022,06,19,08,56,213.00
2022,06,19,08,57,330.10
2022,06,19,08,58,414.40
2022,06,19,08,59,396.10
2022,06,19,09,00,388.00
2022,06,19,09,01,590.30
2022,06,19,09,02,612.00
2022,06,19,09,03,610.00
2022,06,19,09,04,455.70
2022,06,19,09,05,453.50
2022,06,19,09,06,563.00
2022,06,19,09,07,578.20
2022,06,19,09,08,651.20
2022,06,19,09,09,570.00
2022,06,19,09,10,548.80
2022,06,19,09,11,485.00
2022,06,19,09,12,443.00
2022,06,19,09,13,352.10
2022,06,19,09,14,341.00
2022,06,19,09,15,402.70
2022,06,19,09,16,465.60
2022,06,19,09,17,448.00
2022,06,19,09,18,412.20
2022,06,19,09,19,337.20
2022,06,19,09,20,357.40
2022,06,19,09,21,376.00
2022,06,19,09,22,376.00
2022,06,19,09,23,667.90
2022,06,19,09,24,757.20
2022,06,19,09,25,674.50
2022,06,19,09,26,666.00
2022,06,19,09,27,770.90
2022,06,19,09,28,791.60
2022,06,19,09,29,766.10
2022,06,19,09,30,781.00
2022,06,19,09,31,817.00
2022,06,19,09,32,817.00
2022,06,19,09,33,817.00
2022,06,19,09,34,817.00
2022,06,19,09,35,801.70
2022,06,19,09,36,775.00
2022,06,19,09,37,775.00
2022,06,19,09,38,720.90
2022,06,19,09,39,656.00
2022,06,19,09,40,529.00
2022,06,19,09,41,407.90
2022,06,19,09,42,416.70
2022,06,19,09,43,439.40
2022,06,19,09,44,418.90
2022,06,19,09,45,404.40
2022,06,19,09,46,396.10
2022,06,19,09,47,377.00
2022,06,19,09,48,353.40
2022,06,19,09,49,346.40
2022,06,19,09,50,354.60
2022,06,19,09,51,364.00
2022,06,19,09,52,373.00
2022,06,19,09,53,401.30
2022,06,19,09,54,561.50
2022,06,19,09,55,497.60
2022,06,19,09,56,420.80
2022,06,19,09,57,404.20
2022,06,19,09,58,394.00
2022,06,19,09,59,394.00
2022,06,19,10,00,394.00
2022,06,19,10,01,548.50
2022,06,19,10,02,692.00
2022,06,19,10,03,682.30
2022,06,19,10,04,728.30
2022,06,19,10,05,721.30
2022,06,19,10,06,690.50
2022,06,19,10,07,684.00
2022,06,19,10,08,494.90
2022,06,19,10,09,359.20
2022,06,19,10,10,343.00
2022,06,19,10,11,543.60
2022,06,19,10,12,507.50
2022,06,19,10,13,504.00
2022,06,19,10,14,719.00
2022,06,19,10,15,719.90
2022,06,19,10,16,718.60
2022,06,19,10,17,656.00
2022,06,19,10,18,694.30
2022,06,19,10,19,817.00
2022,06,19,10,20,798.50
2022,06,19,10,21,759.00
2022,06,19,10,22,759.00
2022,06,19,10,23,759.00
2022,06,19,10,24,759.00
2022,06,19,10,25,635.90
2022,06,19,10,26,497.70
2022,06,19,10,27,445.60
2022,06,19,10,28,418.40
2022,06,19,10,29,415.00
2022,06,19,10,30,407.10
2022,06,19,10,31,395.40
2022,06,19,10,32,385.10
2022,06,19,10,33,372.60
2022,06,19,10,34,366.50
2022,06,19,10,35,375.00
2022,06,19,10,36,395.10
2022,06,19,10,37,390.30
2022,06,19,10,38,436.30
2022,06,19,10,39,483.00
2022,06,19,10,40,534.30
2022,06,19,10,41,765.00
2022,06,19,10,42,838.70
2022,06,19,10,43,1023.00
2022,06,19,10,44,933.30
2022,06,19,10,45,762.20
2022,06,19,10,46,742.20
2022,06,19,10,47,689.00
2022,06,19,10,48,689.00
2022,06,19,10,49,707.90
2022,06,19,10,50,722.00
2022,06,19,10,51,610.00
2022,06,19,10,52,531.70
2022,06,19,10,53,510.20
2022,06,19,10,54,497.90
2022,06,19,10,55,490.60
2022,06,19,10,56,477.70
2022,06,19,10,57,464.00
2022,06,19,10,58,442.80
2022,06,19,10,59,429.00
2022,06,19,11,00,418.00
2022,06,19,11,01,409.20
2022,06,19,11,02,400.00
2022,06,19,11,03,388.40
2022,06,19,11,04,379.00
2022,06,19,11,05,369.30
2022,06,19,11,06,362.90
2022,06,19,11,07,360.00
2022,06,19,11,08,363.30
2022,06,19,11,09,373.80
2022,06,19,11,10,389.20
2022,06,19,11,11,411.50
2022,06,19,11,12,452.60
2022,06,19,11,13,507.90
2022,06,19,11,14,560.60
2022,06,19,11,15,577.00
2022,06,19,11,16,625.60
2022,06,19,11,17,600.80
2022,06,19,11,18,555.50
2022,06,19,11,19,591.70
2022,06,19,11,20,614.30
2022,06,19,11,21,617.00
2022,06,19,11,22,645.50
2022,06,19,11,23,641.20
2022,06,19,11,24,600.80
2022,06,19,11,25,579.70
2022,06,19,11,26,575.00
2022,06,19,11,27,550.80
2022,06,19,11,28,528.40
2022,06,19,11,29,545.60
2022,06,19,11,30,577.90
2022,06,19,11,31,588.70
2022,06,19,11,32,580.00
2022,06,19,11,33,581.70
2022,06,19,11,34,580.70
2022,06,19,11,35,557.00
2022,06,19,11,36,528.50
2022,06,19,11,37,514.90
2022,06,19,11,38,508.70
2022,06,19,11,39,511.50
2022,06,19,11,40,528.00
2022,06,19,11,41,544.40
2022,06,19,11,42,552.90
2022,06,19,11,43,567.60
2022,06,19,11,44,550.20
2022,06,19,11,45,620.40
2022,06,19,11,46,588.50
2022,06,19,11,47,528.50
2022,06,19,11,48,439.10
2022,06,19,11,49,413.60
2022,06,19,11,50,396.20
2022,06,19,11,51,381.70
2022,06,19,11,52,371.00
2022,06,19,11,53,364.90
2022,06,19,11,54,363.50
2022,06,19,11,55,370.10
2022,06,19,11,56,382.40
2022,06,19,11,57,401.50
2022,06,19,11,58,424.10
2022,06,19,11,59,451.30
2022,06,19,12,00,480.20
2022,06,19,12,01,520.30
2022,06,19,12,02,513.10
2022,06,19,12,03,498.80
2022,06,19,12,04,494.50
2022,06,19,12,05,478.60
2022,06,19,12,06,479.60
2022,06,19,12,07,482.70
2022,06,19,12,08,491.60
2022,06,19,12,09,523.90
2022,06,19,12,10,560.50
2022,06,19,12,11,612.50
2022,06,19,12,12,522.60
2022,06,19,12,13,501.50
2022,06,19,12,14,509.30
2022,06,19,12,15,552.00
2022,06,19,12,16,552.00
2022,06,19,12,17,552.00
2022,06,19,12,18,635.50
2022,06,19,12,19,756.00
2022,06,19,12,20,756.00
2022,06,19,12,21,596.70
2022,06,19,12,22,490.00
2022,06,19,12,23,541.50
2022,06,19,12,24,538.80
2022,06,19,12,25,508.90
2022,06,19,12,26,504.00
2022,06,19,12,27,730.70
2022,06,19,12,28,784.00
2022,06,19,12,29,784.00
2022,06,19,12,30,1212.40
2022,06,19,12,31,1260.00
2022,06,19,12,32,1260.70
2022,06,19,12,33,1274.00
2022,06,19,12,34,1274.00
2022,06,19,12,35,1164.30
2022,06,19,12,36,637.10
2022,06,19,12,37,617.00
2022,06,19,12,38,617.00
2022,06,19,12,39,617.00
2022,06,19,12,40,687.40
2022,06,19,12,41,789.00
2022,06,19,12,42,746.10
2022,06,19,12,43,653.00
2022,06,19,12,44,663.90
2022,06,19,12,45,698.00
2022,06,19,12,46,631.10
2022,06,19,12,47,592.00
2022,06,19,12,48,735.00
2022,06,19,12,49,786.50
2022,06,19,12,50,779.00
2022,06,19,12,51,779.00
2022,06,19,12,52,779.00
2022,06,19,12,53,779.00
2022,06,19,12,54,779.00
2022,06,19,12,55,779.00
2022,06,19,12,56,768.10
2022,06,19,12,57,544.60
2022,06,19,12,58,520.70
2022,06,19,12,59,568.80
2022,06,19,13,00,552.00
2022,06,19,13,01,552.00
2022,06,19,13,02,552.00
2022,06,19,13,03,790.50
2022,06,19,13,04,1167.30
2022,06,19,13,05,1140.70
2022,06,19,13,06,1125.10
2022,06,19,13,07,1117.20
2022,06,19,13,08,1109.60
2022,06,19,13,09,1119.40
2022,06,19,13,10,1117.70
2022,06,19,13,11,1096.60
2022,06,19,13,12,1076.90
2022,06,19,13,13,1072.00
2022,06,19,13,14,1067.70
2022,06,19,13,15,1022.90
2022,06,19,13,16,1009.90
2022,06,19,13,17,990.90
2022,06,19,13,18,978.30
2022,06,19,13,19,964.10
2022,06,19,13,20,954.70
2022,06,19,13,21,946.00
2022,06,19,13,22,940.80
2022,06,19,13,23,936.00
2022,06,19,13,24,932.70
2022,06,19,13,25,932.00
2022,06,19,13,26,931.20
2022,06,19,13,27,930.00
2022,06,19,13,28,928.10
2022,06,19,13,29,926.00
2022,06,19,13,30,926.00
2022,06,19,13,31,925.40
2022,06,19,13,32,925.00
2022,06,19,13,33,927.10
2022,06,19,13,34,926.60
2022,06,19,13,35,926.00
2022,06,19,13,36,926.00
2022,06,19,13,37,927.60
2022,06,19,13,38,929.60
2022,06,19,13,39,932.70
2022,06,19,13,40,934.90
2022,06,19,13,41,937.10
2022,06,19,13,42,940.50
2022,06,19,13,43,946.10
2022,06,19,13,44,947.00
2022,06,19,13,45,948.00
2022,06,19,13,46,944.50
2022,06,19,13,47,927.70
2022,06,19,13,48,952.50
2022,06,19,13,49,976.80
2022,06,19,13,50,968.60
2022,06,19,13,51,971.50
2022,06,19,13,52,983.50
2022,06,19,13,53,990.00
2022,06,19,13,54,1006.20
2022,06,19,13,55,1018.00
2022,06,19,13,56,1018.00
2022,06,19,13,57,1018.00
2022,06,19,13,58,1018.00
2022,06,19,13,59,509.50
2022,06,19,14,00,348.70
2022,06,19,14,01,385.10
2022,06,19,14,02,392.00
2022,06,19,14,03,500.60
2022,06,19,14,04,506.00
2022,06,19,14,05,558.80
2022,06,19,14,06,1060.00
2022,06,19,14,07,1037.70
2022,06,19,14,08,911.00
2022,06,19,14,09,936.80
2022,06,19,14,10,1015.80
2022,06,19,14,11,1020.00
2022,06,19,14,12,1015.00
2022,06,19,14,13,1002.70
2022,06,19,14,14,988.00
2022,06,19,14,15,976.40
2022,06,19,14,16,975.70
2022,06,19,14,17,980.50
2022,06,19,14,18,988.00
2022,06,19,14,19,999.70
2022,06,19,14,20,1021.40
2022,06,19,14,21,1066.20
2022,06,19,14,22,1079.00
2022,06,19,14,23,850.30
2022,06,19,14,24,810.00
2022,06,19,14,25,487.10
2022,06,19,14,26,420.00
2022,06,19,14,27,410.30
2022,06,19,14,28,451.50
2022,06,19,14,29,429.70
2022,06,19,14,30,447.30
2022,06,19,14,31,459.40
2022,06,19,14,32,469.00
2022,06,19,14,33,469.00
2022,06,19,14,34,469.00
2022,06,19,14,35,461.80
2022,06,19,14,36,454.40
2022,06,19,14,37,485.90
2022,06,19,14,38,519.00
2022,06,19,14,39,519.00
2022,06,19,14,40,524.70
2022,06,19,14,41,544.90
2022,06,19,14,42,550.00
2022,06,19,14,43,548.00
2022,06,19,14,44,548.00
2022,06,19,14,45,548.00
2022,06,19,14,46,548.00
2022,06,19,14,47,548.00
2022,06,19,14,48,548.00
2022,06,19,14,49,548.00
2022,06,19,14,50,496.00
2022,06,19,14,51,496.00
2022,06,19,14,52,562.20
2022,06,19,14,53,1158.00
2022,06,19,14,54,1158.00
2022,06,19,14,55,1158.00
2022,06,19,14,56,1158.00
2022,06,19,14,57,1117.00
2022,06,19,14,58,1029.30
2022,06,19,14,59,1009.00
2022,06,19,15,00,978.30
2022,06,19,15,01,948.50
2022,06,19,15,02,923.50
2022,06,19,15,03,905.50
2022,06,19,15,04,901.30
2022,06,19,15,05,896.10
2022,06,19,15,06,882.30
2022,06,19,15,07,873.20
2022,06,19,15,08,866.20
2022,06,19,15,09,860.70
2022,06,19,15,10,853.60
2022,06,19,15,11,847.60
2022,06,19,15,12,844.10
2022,06,19,15,13,840.00
2022,06,19,15,14,840.40
2022,06,19,15,15,844.40
2022,06,19,15,16,847.00
2022,06,19,15,17,847.00
2022,06,19,15,18,845.30
2022,06,19,15,19,839.40
2022,06,19,15,20,838.80
2022,06,19,15,21,840.00
2022,06,19,15,22,837.90
2022,06,19,15,23,834.00
2022,06,19,15,24,831.40
2022,06,19,15,25,827.90
2022,06,19,15,26,823.00
2022,06,19,15,27,818.50
2022,06,19,15,28,816.30
2022,06,19,15,29,816.00
2022,06,19,15,30,812.80
2022,06,19,15,31,810.40
2022,06,19,15,32,809.10
2022,06,19,15,33,809.00
2022,06,19,15,34,807.20
2022,06,19,15,35,803.20
2022,06,19,15,36,805.00
2022,06,19,15,37,802.70
2022,06,19,15,38,799.40
2022,06,19,15,39,795.80
2022,06,19,15,40,795.00
2022,06,19,15,41,794.50
2022,06,19,15,42,793.00
2022,06,19,15,43,792.30
2022,06,19,15,44,790.30
2022,06,19,15,45,787.90
2022,06,19,15,46,786.90
2022,06,19,15,47,786.00
2022,06,19,15,48,784.00
2022,06,19,15,49,785.20
2022,06,19,15,50,787.20
2022,06,19,15,51,788.00
2022,06,19,15,52,786.50
2022,06,19,15,53,786.00
2022,06,19,15,54,786.00
2022,06,19,15,55,786.00
2022,06,19,15,56,788.70
2022,06,19,15,57,792.80
2022,06,19,15,58,796.00
2022,06,19,15,59,807.20
2022,06,19,16,00,811.60
2022,06,19,16,01,809.00
2022,06,19,16,02,809.00
2022,06,19,16,03,799.20
2022,06,19,16,04,766.60
2022,06,19,16,05,761.50
2022,06,19,16,06,758.30
2022,06,19,16,07,757.90
2022,06,19,16,08,755.10
2022,06,19,16,09,752.50
2022,06,19,16,10,750.00
2022,06,19,16,11,747.90
2022,06,19,16,12,745.80
2022,06,19,16,13,751.00
2022,06,19,16,14,755.30
2022,06,19,16,15,771.80
2022,06,19,16,16,777.00
2022,06,19,16,17,756.20
2022,06,19,16,18,751.80
2022,06,19,16,19,760.10
2022,06,19,16,20,746.50
2022,06,19,16,21,760.20
2022,06,19,16,22,755.90
2022,06,19,16,23,754.90
2022,06,19,16,24,759.10
2022,06,19,16,25,735.20
2022,06,19,16,26,722.40
2022,06,19,16,27,716.40
2022,06,19,16,28,714.10
2022,06,19,16,29,711.40
2022,06,19,16,30,708.90
2022,06,19,16,31,704.20
2022,06,19,16,32,700.00
2022,06,19,16,33,697.90
2022,06,19,16,34,694.30
2022,06,19,16,35,689.60
2022,06,19,16,36,686.40
2022,06,19,16,37,686.00
2022,06,19,16,38,683.20
2022,06,19,16,39,682.00
2022,06,19,16,40,679.70
2022,06,19,16,41,672.20
2022,06,19,16,42,671.00
2022,06,19,16,43,670.10
2022,06,19,16,44,666.20
2022,06,19,16,45,665.80
2022,06,19,16,46,660.60
2022,06,19,16,47,656.30
2022,06,19,16,48,651.50
2022,06,19,16,49,648.50
2022,06,19,16,50,645.50
2022,06,19,16,51,642.00
2022,06,19,16,52,640.50
2022,06,19,16,53,636.80
2022,06,19,16,54,634.20
2022,06,19,16,55,631.10
2022,06,19,16,56,628.50
2022,06,19,16,57,626.90
2022,06,19,16,58,623.60
2022,06,19,16,59,621.30
2022,06,19,17,00,619.70
2022,06,19,17,01,616.20
2022,06,19,17,02,612.90
2022,06,19,17,03,610.50
2022,06,19,17,04,606.60
2022,06,19,17,05,606.00